Evergreen, AL

3:13 PM CDT on April 23, 2017 (GMT -0500)
Middleton

Weather History for KGZH - November, 2011

Change the Weather History Date:

Friday, November 25, 2011

  Actual Average (KPRN) Record (KPRN)
Temperature  
Mean Temperature 54 °F -  
Max Temperature 73 °F 66 °F 81 °F (1951)
Min Temperature 35 °F 42 °F 11 °F (1970)
Degree Days  
Heating Degree Days 11    
Growing Degree Days 4 (Base 50)    
Moisture  
Dew Point 43 °F    
Average Humidity 72    
Maximum Humidity 89    
Minimum Humidity 41    
Precipitation  
Precipitation 0.00 in - - ()
Sea Level Pressure  
Sea Level Pressure 30.26 in    
Wind  
Wind Speed 3 mph (SE)    
Max Wind Speed 14 mph    
Max Gust Speed 20 mph    
Visibility 10 miles    
Events      
Averages and records for this station are not official NWS values.
T = Trace of Precipitation, MM = Missing Value Source: NWS Daily Summary

Daily Weather History Graph

Daily Weather History Graph

Search for Another Location

Airport or City:

Trip Planner

Search our weather history database for the weather conditions in past years. The results will help you decide how hot, cold, wet, or windy it might be!

Date:

Astronomy

Nov. 25, 2011 Rise Set
Actual Time 6:24 AM CST 4:45 PM CST
Civil Twilight 5:58 AM CST 5:11 PM CST
Nautical Twilight 5:28 AM CST 5:41 PM CST
Astronomical Twilight 4:59 AM CST 6:10 PM CST
Moon 6:48 AM CST (11/25) 5:16 PM CST (11/25)
Length of Visible Light 11h 13m
Length of Day
10h 21m
New Moon, 0% of the Moon is Illuminated
Nov 25
New Moon
Dec 2
First Quarter
Dec 10
Full
Dec 17
Last Quarter
Dec 24
New

Hourly Weather History & Observations

Time (CST) Temp. Dew Point Humidity Pressure Visibility Wind Dir Wind Speed Gust Speed Precip Events Conditions
12:53 AM 39.0 °F 36.0 °F 89% 30.31 in 10.0 mi Calm Calm - N/A   Clear
2:53 AM 37.0 °F 34.0 °F 89% 30.31 in 10.0 mi Calm Calm - N/A   Clear
3:53 AM 37.0 °F 34.0 °F 89% 30.31 in 10.0 mi Calm Calm - N/A   Clear
4:53 AM 36.0 °F 33.1 °F 89% 30.32 in 10.0 mi Calm Calm - N/A   Clear
5:53 AM 35.1 °F 32.0 °F 89% 30.32 in 10.0 mi Calm Calm - N/A   Clear
6:53 AM 36.0 °F 33.1 °F 89% 30.33 in 10.0 mi Calm Calm - N/A   Clear
7:53 AM 46.0 °F 41.0 °F 83% 30.34 in 10.0 mi Calm Calm - N/A   Clear
8:53 AM 57.0 °F 44.1 °F 62% 30.34 in 10.0 mi ESE 9.2 mph - N/A   Clear
9:53 AM 63.0 °F 46.0 °F 54% 30.32 in 10.0 mi SE 8.1 mph - N/A   Clear
10:53 AM 68.0 °F 48.0 °F 49% 30.31 in 10.0 mi SSE 11.5 mph - N/A   Clear
11:53 AM 72.0 °F 48.9 °F 44% 30.27 in 10.0 mi SSE 13.8 mph 19.6 mph N/A   Clear
1:53 PM 73.0 °F 48.0 °F 41% 30.22 in 10.0 mi SSE 12.7 mph - N/A   Clear
2:53 PM 73.0 °F 48.9 °F 42% 30.20 in 10.0 mi SE 6.9 mph - N/A   Clear
3:53 PM 72.0 °F 48.0 °F 43% 30.19 in 10.0 mi SSE 10.4 mph - N/A   Clear
4:53 PM 64.9 °F 48.9 °F 56% 30.20 in 10.0 mi SSE 3.5 mph - N/A   Scattered Clouds
5:53 PM 60.1 °F 50.0 °F 69% 30.20 in 10.0 mi Calm Calm - N/A   Clear
6:53 PM 55.0 °F 48.9 °F 80% 30.22 in 10.0 mi Calm Calm - N/A   Scattered Clouds
7:53 PM 52.0 °F 48.0 °F 86% 30.22 in 10.0 mi Calm Calm - N/A   Partly Cloudy
8:53 PM 50.0 °F 46.9 °F 89% 30.21 in 10.0 mi Calm Calm - N/A   Clear
9:53 PM 48.9 °F 45.0 °F 86% 30.21 in 10.0 mi Calm Calm - N/A   Clear
10:53 PM 48.0 °F 45.0 °F 89% 30.20 in 10.0 mi Calm Calm - N/A   Clear